Flag for Colombia Weather past 2 weeks in Medellin, Colombia

Now
61 °F

Passing clouds.


Feels Like: 61 °F
Forecast: 61 / 84 °F
Wind: 5 mph from North

Location: Rionegro / J. M. Cordova

Current Time: Aug 21, 2014 at 9:01:41 PM

Latest Report: Aug 21, 2014 at 8:00 PM


Visibility: N/A

Pressure: 30.28 "Hg

Humidity: 83%

Dew point: 55 °F

Location of MedellinLocation

Historic Weather in Medellin — Graph

°F

Medellin temperature yesterday

Maximum temperature yesterday: 73 °F (at 1:00 PM)
Minimum temperature yesterday: 55 °F (at 3:00 AM)
Average temperature yesterday: 64 °F

Past Weeks' High & Low Weather Summary

 TemperatureHumidityPressure
High75 °F (Aug 15, 2:00 PM)100% (Aug 7, 12:00 AM)30.38 "Hg (Aug 7, 12:00 AM)
Low50 °F (Aug 15, 5:00 AM)38% (Aug 7, 2:00 PM)30.17 "Hg (Aug 18, 4:00 PM)
Average63 °F74%30.29 "Hg
* Reported Aug 6 8:00 PM — Aug 21 8:00 PM, Medellin, Weather by CustomWeather, © 2014

Note: Actual official high and low records may vary slightly from our data, if they occured in-between our weather recording intervals... More about our weather records

Advertising

Medellin weather history for previous 24 hours

 ConditionsComfort  
Time TempWeatherWind HumidityBarometerVisibility
8:00 PM
Aug 21
61 °FPassing clouds.5 mph83%30.28 "HgN/A
7:00 PM64 °FPassing clouds.7 mph60%30.27 "HgN/A
6:00 PM68 °FPartly sunny.7 mph53%30.26 "HgN/A
5:00 PM70 °FPartly sunny.9 mph50%30.25 "HgN/A
4:00 PM72 °FPartly sunny.12 mph44%30.24 "HgN/A
3:00 PM72 °FPartly sunny.12 mph41%30.24 "HgN/A
2:00 PM73 °FScattered clouds.14 mph44%30.26 "HgN/A
1:00 PM72 °FScattered clouds.12 mph47%30.28 "HgN/A
12:00 PM70 °FPassing clouds.5 mph53%30.29 "HgN/A
11:00 AM68 °FScattered clouds.8 mph53%30.32 "HgN/A
10:00 AM64 °FScattered clouds.7 mph68%30.33 "HgN/A
9:00 AM59 °FScattered clouds.8 mph82%30.34 "Hg4 mi
8:00 AM57 °FSnow. Partly sunny.7 mph82%30.33 "Hg5 mi
7:00 AM55 °FScattered clouds.6 mph88%30.32 "Hg4 mi
6:00 AM55 °FPartly sunny.No wind94%30.29 "HgN/A
5:00 AM57 °FPassing clouds.No wind94%30.28 "HgN/A
4:00 AM57 °FPassing clouds.No wind94%30.27 "HgN/A
3:00 AM57 °FPartly cloudy.No wind94%30.29 "HgN/A
2:00 AM57 °FPartly cloudy.2 mph88%30.31 "HgN/A
1:00 AM59 °FPassing clouds.No wind82%30.32 "HgN/A
12:00 AM61 °FPassing clouds.No wind77%30.33 "HgN/A
11:00 PM
Aug 20
61 °FPassing clouds.No wind77%30.34 "HgN/A
10:00 PM61 °FPassing clouds.No wind77%30.34 "HgN/A
9:00 PM63 °FPassing clouds.No wind73%30.32 "HgN/A
Weather by CustomWeather, © 2014

See weather overviewHow to use our weather pages